Location: Fort Worth, Tx
(32.7431°N, 97.3695°W)
Time: 20:43:59
(UTC-05:00)

Tiros 1 - Pass Details

Date: 05 October 2024
Orbit: 622 x 654 km, 48.4° (Epoch: 05 November)

Event Time Altitude Azimuth Distance (km) Brightness Sun altitude
Rises 16:36:29 0° 310° (NW) 2,896 10.6 39.8°
Reaches altitude 10° 16:38:48 10° 311° (NW) 1,986 9.8 39.4°
Maximum altitude 16:43:22 81° 38° (NE) 631 7.6 38.7°
Drops below altitude 10° 16:47:56 10° 127° (SE) 1,982 9.6 38.0°
Sets 16:50:14 0° 128° (SE) 2,888 10.4 37.6°
